WetterOnline ( https://www.wetteronline.ch )

Wetter aktuell Gransee

Aktuelles Wetter: Neuruppin - Alt Ruppin (50m)

6-stündlich | Neueste Meldungen
Ortszeit Temperatur Wetter
So, 19.01. 19:00 3.9° C bedeckt
So, 19.01. 13:00 4.2° C bewölkt
So, 19.01. 7:00 3.0° C bedeckt
So, 19.01. 1:00 3.8° C bedeckt
Sa, 18.01. 19:00 4.8° C bedeckt
Sa, 18.01. 13:00 6.6° C wolkig
Sa, 18.01. 7:00 5.0° C bewölkt
Sa, 18.01. 1:00 5.6° C Regen
Ortszeit Temperatur Wetter
So, 19.01. 23:30 1.1° C bewölkt
So, 19.01. 23:20 1.1° C bewölkt
So, 19.01. 23:10 1.0° C wolkig
So, 19.01. 23:00 1.1° C wolkenlos
So, 19.01. 22:50 1.1° C wolkenlos
So, 19.01. 22:40 1.2° C wolkenlos
So, 19.01. 22:30 1.9° C wolkenlos
So, 19.01. 22:00 3.1° C leicht bewölkt
So, 19.01. 21:30 3.7° C bewölkt
So, 19.01. 21:00 3.9° C bewölkt
So, 19.01. 20:30 3.8° C bedeckt
So, 19.01. 20:00 3.9° C bedeckt
Ortszeit Relative Feuchte Sichtweite
So, 19.01. 19:00 89% 17 km
So, 19.01. 13:00 85% 17 km
So, 19.01. 7:00 89% 20 km
So, 19.01. 1:00 89% 17 km
Sa, 18.01. 19:00 76% 35 km
Sa, 18.01. 13:00 70% 40 km
Sa, 18.01. 7:00 74% 45 km
Sa, 18.01. 1:00 95% 6 km
Ortszeit Relative Feuchte Sichtweite
So, 19.01. 23:30 96% 15 km
So, 19.01. 23:20 96% -
So, 19.01. 23:10 95% -
So, 19.01. 23:00 94% -
So, 19.01. 22:50 94% -
So, 19.01. 22:40 96% -
So, 19.01. 22:30 94% 17 km
So, 19.01. 22:00 90% 21 km
So, 19.01. 21:30 88% 23 km
So, 19.01. 21:00 86% 23 km
So, 19.01. 20:30 88% 20 km
So, 19.01. 20:00 91% 19 km
Ortszeit Niederschlagsmenge Niederschlagsart
So, 19.01. 19:00 0.0 l/m2 in 12 Std. -
So, 19.01. 13:00 0.0 l/m2 in 6 Std. -
So, 19.01. 7:00 0.1 l/m2 in 12 Std. -
So, 19.01. 1:00 0.1 l/m2 in 6 Std. Regen
Sa, 18.01. 19:00 0.0 l/m2 in 12 Std. -
Sa, 18.01. 13:00 0.0 l/m2 in 6 Std. -
Sa, 18.01. 7:00 0.2 l/m2 in 12 Std. Regen
Sa, 18.01. 1:00 0.1 l/m2 in 6 Std. Regen
Ortszeit Niederschlagsmenge Niederschlagsart
So, 19.01. 23:30 0.0 l/m2 in 1 Std. -
So, 19.01. 23:20 keine Meldung -
So, 19.01. 23:10 keine Meldung -
So, 19.01. 23:00 0.0 l/m2 in 1 Std. -
So, 19.01. 22:50 keine Meldung -
So, 19.01. 22:40 keine Meldung -
So, 19.01. 22:30 0.0 l/m2 in 1 Std. -
So, 19.01. 22:00 0.0 l/m2 in 1 Std. -
So, 19.01. 21:30 0.0 l/m2 in 1 Std. -
So, 19.01. 21:00 0.0 l/m2 in 1 Std. -
So, 19.01. 20:30 0.0 l/m2 in 1 Std. -
So, 19.01. 20:00 0.0 l/m2 in 1 Std. -
Ortszeit Stärke Spitze Richtung
km/h Bft. km/h Grad Sektor
So, 19.01. 19:00 4 1 18 230° SW
So, 19.01. 13:00 7 2 18 250° W
So, 19.01. 7:00 7 2 18 290° W
So, 19.01. 1:00 7 2 22 230° SW
Sa, 18.01. 19:00 9 2 33 230° SW
Sa, 18.01. 13:00 14 3 36 250° W
Sa, 18.01. 7:00 13 3 30 240° SW
Sa, 18.01. 1:00 7 2 18 210° SW
Ortszeit Stärke Spitze Richtung
km/h Bft. km/h Grad Sektor
So, 19.01. 23:30 4 1 4 290° W
So, 19.01. 23:20 4 1 - 290° W
So, 19.01. 23:10 4 1 - 280° W
So, 19.01. 23:00 4 1 4 270° W
So, 19.01. 22:50 4 1 - 270° W
So, 19.01. 22:40 0 0 - 220° SW
So, 19.01. 22:30 0 0 4 - -
So, 19.01. 22:00 2 1 7 280° W
So, 19.01. 21:30 4 1 7 310° NW
So, 19.01. 21:00 4 1 11 300° NW
So, 19.01. 20:30 4 1 7 290° W
So, 19.01. 20:00 2 1 4 280° W
Ortszeit Untergrenze Bedeckung Gattung
total tief tief mittel hoch
So, 19.01. 19:00 780 m 8/8 8/8 - - -
So, 19.01. 13:00 180 m 7/8 7/8 - - -
So, 19.01. 7:00 240 m 8/8 8/8 - - -
So, 19.01. 1:00 450 m 8/8 8/8 - - -
Sa, 18.01. 19:00 1260 m 8/8 8/8 - - -
Sa, 18.01. 13:00 630 m 7/8 3/8 - - -
Sa, 18.01. 7:00 1020 m 7/8 7/8 - - -
Sa, 18.01. 1:00 360 m 8/8 8/8 - - -
Ortszeit Bedeckungsgrad in Achtel und Wolkenuntergrenze
So, 19.01. 23:30 7(570m)
So, 19.01. 23:20 7(570m)
So, 19.01. 23:10 5(570m)
So, 19.01. 23:00 1(630m)
So, 19.01. 22:50 keine Wolken
So, 19.01. 22:40 keine Wolken
So, 19.01. 22:30 keine Wolken
So, 19.01. 22:00 4(540m)
So, 19.01. 21:30 7(600m)
So, 19.01. 21:00 7(690m)
So, 19.01. 20:30 8(720m)
So, 19.01. 20:00 8(690m)
Ortszeit Luftdruck NN (hPa) Tendenz (hPa in 3 Std.)
So, 19.01. 19:00 1039 + 2,5
So, 19.01. 13:00 1034 + 1,8
So, 19.01. 7:00 1029 + 2,1
So, 19.01. 1:00 1026 + 1,2
Sa, 18.01. 19:00 1024 + 1,1
Sa, 18.01. 13:00 1022 + 0,5
Sa, 18.01. 7:00 1020 + 1,8
Sa, 18.01. 1:00 1016 + 1,2
Ortszeit Luftdruck NN (hPa) Tendenz (hPa in 3 Std.)
So, 19.01. 23:30 1042 + 1,8
So, 19.01. 23:20 1042 keine Meldung
So, 19.01. 23:10 1042 keine Meldung
So, 19.01. 23:00 1042 + 1,9
So, 19.01. 22:50 1042 keine Meldung
So, 19.01. 22:40 1041 keine Meldung
So, 19.01. 22:30 1041 + 2,0
So, 19.01. 22:00 1041 + 2,2
So, 19.01. 21:30 1041 + 2,2
So, 19.01. 21:00 1040 + 2,3
So, 19.01. 20:30 1040 + 2,5
So, 19.01. 20:00 1040 + 2,4
Ortszeit Schneehöhe (cm)
So, 19.01. 19:00 0
So, 19.01. 13:00 0
So, 19.01. 7:00 0
So, 19.01. 1:00 0
Sa, 18.01. 19:00 0
Sa, 18.01. 13:00 0
Sa, 18.01. 7:00 0
Sa, 18.01. 1:00 0
Ortszeit Schneehöhe (cm)
So, 19.01. 23:30 0
So, 19.01. 23:20 0
So, 19.01. 23:10 0
So, 19.01. 23:00 0
So, 19.01. 22:50 0
So, 19.01. 22:40 0
So, 19.01. 22:30 0
So, 19.01. 22:00 0
So, 19.01. 21:30 0
So, 19.01. 21:00 0
So, 19.01. 20:30 0
So, 19.01. 20:00 0
Link zu dieser Seite / Seite empfehlen

Das Wetter in ...